Regional Weather Roundup
Issued by NWS

Home | Current Version | Previous Version | Text Only | Print | Product List | Glossary On
Versions: 1 2 3 4 5 6 7 8 9 10 11 12 13 14 15 16 17 18 19 20 21 22 23 24 25 26 27 28 29 30 31 32 33 34 35 36 37 38 39 40 41 42 43 44 45 46 47 48 49 50
000
ASUS45 KPSR 241610
RWRAZ

ARIZONA HOURLY REGIONAL WEATHER ROUNDUP
NATIONAL WEATHER SERVICE PHOENIX AZ
900 AM MST WED AUG 24 2016

NOTE: FAIR INDICATES FEW OR NO CLOUDS BELOW 12,000 FEET WITH NO
SIGNIFICANT WEATHER AND/OR OBSTRUCTIONS TO VISIBILITY.

AZZ001>003-036-241700-
NORTHWEST ARIZONA

CITY           SKY/WX    TMP DP  RH WIND       PRES   REMARKS
BULLHEAD CITY  SUNNY     86  55  35 S6        29.96S
KINGMAN        SUNNY     80  55  42 SE7       30.13S
$$

AZZ004>008-015-016-018-241700-
NORTH CENTRAL ARIZONA

CITY           SKY/WX    TMP DP  RH WIND       PRES   REMARKS
GRAND CANYON   SUNNY     69  48  47 W7        30.35R
PRESCOTT       SUNNY     71  58  63 N5        30.26R
FLAGSTAFF      SUNNY     67  44  43 VRB7      30.36S
PAYSON         MOSUNNY   70  48  46 CALM      30.29R
PAGE           SUNNY     75  51  43 N5        30.18S
$$

AZZ009>014-017-241700-
NORTHEAST ARIZONA

CITY           SKY/WX    TMP DP  RH WIND       PRES   REMARKS
WINSLOW        SUNNY     70  52  52 SE3       30.25S
SAINT JOHNS    SUNNY     65  53  65 CALM      30.28S
WINDOW ROCK    MOSUNNY   63  49  60 CALM      30.34R
SHOW LOW       MOSUNNY   61  48  63 CALM      30.34R
$$

AZZ023-241700-
GREATER PHOENIX AREA

CITY           SKY/WX    TMP DP  RH WIND       PRES   REMARKS
PHOENIX        MOSUNNY   86  60  41 CALM      30.00R
BUCKEYE        SUNNY     84  63  48 SE6       30.01S
GLENDALE       MOSUNNY   86  57  37 CALM      30.02S
LUKE AFB       SUNNY     87  57  36 N5        29.99S
DEER VALLEY    SUNNY     85  58  39 E3        30.02R
SCOTTSDALE     SUNNY     83  60  45 SW3       30.04S
MESA-FALCON    MOSUNNY  N/A N/A N/A N8        30.00S
MESA-GATEWAY   MOSUNNY   84  55  37 E5        30.04R
CHANDLER       MOSUNNY   84  57  39 NE6       30.02R
$$

AZZ027-028-241700-
SOUTHWEST MARICOPA COUNTY AND PINAL COUNTY

CITY           SKY/WX    TMP DP  RH WIND       PRES   REMARKS
CASA GRANDE    SUNNY     84  57  39 S7        30.05S
GILA BEND      SUNNY     89  55  31 N2        29.99R
$$

AZZ503-504-507>509-241700-
SOUTHEAST ARIZONA

CITY           SKY/WX    TMP DP  RH WIND       PRES   REMARKS
TUCSON         SUNNY     82  51  34 CALM      30.13S
DAVIS-MONTHAN  SUNNY     82  50  32 W3        30.11S
RYAN FIELD     SUNNY     79  54  41 CALM      30.12S
NOGALES          N/A    N/A N/A N/A MISG      30.20S
SIERRA VISTA   SUNNY     78  47  32 NW3       30.25R
DOUGLAS        SUNNY     76  49  38 SE5       30.21S
SAFFORD        SUNNY     78  49  35 CALM      30.12S
$$

AZZ020-021-025-026-031-241700-
SOUTHWEST ARIZONA

CITY           SKY/WX    TMP DP  RH WIND       PRES   REMARKS
YUMA           SUNNY     89  65  44 S16       29.94R
$$

CAZ031-033-041-043-047-048-061-241700-
SOUTHERN CALIFORNIA

CITY           SKY/WX    TMP DP  RH WIND       PRES   REMARKS
DOWNTOWN L.A.  SUNNY     73  60  63 CALM      30.03S
L.A. AIRPORT   MOSUNNY   70  60  70 SW5       30.04S
SAN DIEGO      MOSUNNY   70  61  73 NE3       30.05S
BURBANK        SUNNY     71  56  58 SE5       30.04S
ONTARIO        SUNNY     73  55  53 CALM      30.05S
RIVERSIDE      SUNNY     72  56  57 CALM      30.05S
PALM SPRINGS   SUNNY     90  48  23 VRB6      29.94S
EL CENTRO NAS  SUNNY     91  63  39 S7        29.93S
IMPERIAL       SUNNY     93  70  46 SE8       29.90F
BLYTHE         SUNNY     90  54  29 S8        29.93S
NEEDLES        SUNNY     91  55  29 CALM      29.96S
$$

NVZ020-UTZ003-241700-
SOUTHERN NEVADA-UTAH

CITY           SKY/WX    TMP DP  RH WIND       PRES   REMARKS
LAS VEGAS      MOSUNNY   84  51  31 S5        30.01S
SALT LAKE CITY MOSUNNY   75  27  17 N5        30.16R
$$

NMZ009-TXZ055-241700-
NEW MEXICO-WEST TEXAS

CITY           SKY/WX    TMP DP  RH WIND       PRES   REMARKS
ALBUQUERQUE    CLOUDY    66  50  56 CALM      30.26R
EL PASO        MOSUNNY   75  63  66 S8        30.16R
$$


........................KEY........................
SKY/WX - SKY CONDITION/WEATHER
TMP    - TEMPERATURE IN FAHRENHEIT
DP     - DEW POINT IN FAHRENHEIT
RH     - RELATIVE HUMIDITY IN PERCENT
WIND   - DIRECTION AND SPEED IN MILES PER HOUR (MPH)
VRB    - VARIABLE WIND DIRECTION
PRES   - MEAN SEA LEVEL PRESSURE IN INCHES OF MERCURY
         F - FALLING PRESSURE   R - RISING PRESSURE
         S - STEADY PRESSURE
VSB    - VISIBILITY IN MILES
HX     - HEAT INDEX IN FAHRENHEIT
WCI    - WIND CHILL INDEX IN FAHRENHEIT
TC     - TEMPERATURE IN CELSIUS WHICH IS ALSO KNOWN AS
         TEMPERATURE IN CENTIGRADE
AFB    - AIR FORCE BASE
         LUKE AFB IS LUKE AIR FORCE BASE
         DAVIS-MONTHAN IS DAVIS-MONTHAN AIR FORCE BASE
NAS    - NAVAL AIR STATION
         EL CENTRO NAS IS EL CENTRO NAVAL AIR STATION
N/A    - NOT AVAILABLE




USA.gov is the U.S. government's official web portal to all federal, state and local government web resources and services.